Probability
0 0 0 0 0 0 0 0 0 0 0 0 0 0 6 19 29 65 77 87 100 100 100 100 100 100 100 100 100 100 100 100 100 100 100 100 100 100 100 100 100 100 100 100 100 100 100 100 100
0 0 0 0 0 0 0 0 0 0 0 0 0 0 6 26 42 71 84 87 100 100 97 97 100 100 100 100 100 100 100 100 100 100 100 100 100 100 100 100 100 100 100 100 100 100 97 97 100
0 0 0 0 0 0 0 0 0 0 0 0 0 0 10 32 45 81 94 94 100 100 97 100 100 100 100 100 100 100 100 100 100 100 100 100 100 100 100 100 100 100 100 100 100 97 97 97 94
0 0 0 0 0 0 0 0 0 0 0 0 0 6 26 23 45 94 94 97 100 100 100 100 100 100 100 100 100 100 100 100 100 100 100 100 100 100 100 100 100 100 100 100 94 94 90 90 94
0 0 0 0 0 0 0 0 0 0 0 0 0 16 58 42 65 94 90 97 97 100 100 100 100 100 100 100 100 100 100 100 100 100 100 100 100 100 100 100 100 100 97 94 84 81 81 81 84
0 0 0 0 0 0 0 0 0 0 0 0 0 29 74 65 81 100 90 90 97 100 100 100 100 100 100 100 100 100 100 100 100 100 100 100 100 100 100 100 100 97 90 81 74 71 68 68 55
0 0 0 0 0 0 0 0 0 0 0 0 0 32 61 68 87 100 94 94 97 100 100 100 100 100 100 100 100 100 100 100 100 100 100 100 100 100 100 100 100 94 84 61 52 42 45 35 29
0 0 0 0 0 0 0 0 0 0 0 0 0 13 61 77 90 97 94 94 100 100 100 100 100 100 100 100 100 100 100 100 100 100 100 100 100 100 100 97 97 87 71 52 39 35 29 19 19
0 0 0 0 0 0 0 0 0 0 0 0 0 39 65 68 84 100 100 97 100 100 94 97 97 100 100 100 100 100 100 100 100 100 100 100 100 100 100 90 97 94 77 58 48 52 55 55 45
0 0 0 0 0 0 0 0 0 0 0 0 3 39 65 74 90 97 97 100 100 100 100 97 100 100 97 100 100 100 100 100 100 100 100 100 100 100 87 97 100 97 97 94 90 81 77 58 32
0 0 0 0 0 0 0 0 0 0 0 0 3 35 48 74 81 94 94 97 100 100 100 100 100 100 100 97 100 100 97 100 97 100 100 100 100 100 100 97 100 100 100 94 97 90 65 39 39
0 0 0 0 0 0 0 0 0 0 0 0 3 19 52 68 74 81 90 97 97 97 100 100 100 100 100 100 100 100 100 100 97 100 100 97 97 97 100 97 94 100 100 100 97 94 71 65 61
0 0 0 0 0 0 0 0 0 0 0 0 3 19 39 48 68 81 81 90 94 97 97 100 100 100 100 100 100 100 100 100 97 100 100 100 100 100 100 100 100 100 100 100 100 97 90 58 48
0 0 0 0 0 0 0 0 0 0 0 0 3 13 26 39 55 77 84 90 100 100 100 100 100 100 100 100 100 100 100 100 100 100 100 100 100 100 100 100 100 100 100 100 97 94 87 71 71
0 0 0 0 0 0 0 0 0 0 0 0 0 10 16 29 52 68 77 94 100 100 100 100 100 100 100 100 100 100 100 100 100 100 100 100 100 100 100 100 100 100 100 100 97 94 84 81 74
0 0 0 0 0 0 0 0 0 0 0 0 6 10 19 35 48 58 84 94 97 100 100 100 100 100 100 100 100 100 100 100 100 100 100 100 100 100 100 100 100 97 94 94 97 87 77 74 71
0 0 0 0 0 0 0 3 3 3 3 10 13 19 26 45 39 52 84 97 97 97 100 100 100 100 100 100 100 100 100 100 100 100 97 97 100 100 100 97 97 90 90 90 77 68 71 68 65
0 0 0 0 0 0 3 6 13 16 13 10 16 19 32 42 42 74 90 94 97 97 97 97 97 97 100 100 100 100 100 97 90 87 87 84 90 90 94 90 87 87 81 71 68 61 58 58 55
0 0 0 0 3 6 6 13 16 23 23 26 29 35 35 42 48 71 77 90 97 97 97 97 97 97 97 97 100 100 97 87 81 81 77 77 81 81 77 77 74 65 58 61 55 48 32 32 29
0 0 0 3 3 6 10 13 16 26 32 35 42 45 58 52 65 68 74 74 81 90 94 94 94 94 97 97 97 94 87 84 74 68 61 55 55 52 45 42 42 45 42 32 32 26 19 13 6
0 0 0 3 3 6 6 3 23 32 42 52 61 48 45 45 42 45 45 58 68 77 81 81 84 90 94 97 87 81 71 65 58 45 35 32 26 19 26 26 26 23 26 26 19 19 6 3 0
0 0 0 3 3 0 0 3 19 26 45 45 55 52 32 32 26 29 32 45 55 61 68 65 68 77 84 90 81 68 68 58 45 29 23 16 13 10 10 10 10 13 13 13 13 6 3 0 0
0 0 0 0 0 0 0 0 19 26 35 42 32 29 26 29 26 19 26 19 26 29 35 45 42 45 55 58 65 58 48 42 23 23 16 13 6 6 3 0 0 3 3 3 3 0 0 0 0
0 0 0 0 0 0 0 0 16 29 29 35 26 16 16 13 10 6 0 0 0 3 6 10 10 10 13 19 26 29 26 19 10 10 3 0 0 0 0 0 0 0 0 0 0 0 0 0 0
0 0 0 0 0 0 0 0 39 39 42 39 13 6 0 0 0 0 0 0 0 3 3 3 3 3 3 3 3 6 0 0 0 0 0 0 0 0 0 0 0 0 0 0 0 0 0 0 0
0 0 0 0 0 0 0 3 58 35 23 13 0 0 0 0 0 0 0 0 0 0 0 0 0 0 0 0 0 0 0 0 0 0 0 0 0 0 0 0 0 0 0 0 0 0 0 0 0
0 0 0 0 0 0 0 42 19 16 10 3 0 0 0 0 0 0 0 0 0 0 0 0 0 0 0 0 0 0 0 0 0 0 0 0 0 0 0 0 0 0 0 0 0 0 0 0 0
0 0 0 0 0 0 0 13 26 13 3 0 0 0 0 0 0 0 0 0 0 0 0 0 0 0 0 0 0 0 0 0 0 0 0 0 0 0 0 0 0 0 0 0 0 0 0 0 0
0 0 0 0 0 0 0 0 3 6 0 0 0 0 0 0 0 0 0 0 0 0 0 0 0 0 0 0 0 0 0 0 0 0 0 0 0 0 0 0 0 0 0 0 0 0 0 0 0
0 0 0 0 0 0 0 6 10 3 0 0 0 0 0 0 0 0 0 0 0 0 0 0 0 0 0 0 0 0 0 0 0 0 0 0 0 0 0 0 0 0 0 0 0 0 0 0 0
Height
5883 5884 5886 5888 5890 5893 5893 5893 5891 5890 5888 5891 5892 5893 5892 5892 5892 5893 5888 5891 5893 5894 5894 5895 5896 5896 5897 5897 5897 5898 5898 5899 5899 5900 5900 5901 5901 5901 5901 5901 5901 5901 5900 5900 5900 5900 5900 5900 5900
5881 5882 5883 5885 5887 5889 5891 5889 5888 5887 5887 5891 5893 5893 5890 5889 5889 5890 5889 5891 5893 5892 5893 5893 5894 5894 5895 5895 5896 5896 5897 5897 5898 5899 5899 5899 5900 5900 5900 5900 5900 5900 5900 5900 5900 5900 5900 5899 5899
5877 5878 5880 5881 5883 5885 5886 5885 5885 5883 5886 5889 5891 5891 5889 5888 5887 5889 5890 5890 5891 5891 5891 5891 5892 5892 5893 5893 5894 5894 5895 5896 5896 5897 5898 5898 5898 5899 5899 5899 5899 5899 5899 5899 5899 5899 5899 5899 5899
5873 5875 5876 5879 5880 5883 5883 5881 5881 5882 5884 5886 5888 5888 5886 5888 5888 5888 5888 5888 5889 5889 5889 5889 5889 5890 5890 5891 5892 5892 5893 5894 5895 5896 5896 5897 5897 5897 5898 5898 5898 5898 5898 5898 5898 5898 5898 5898 5898
5868 5870 5872 5874 5877 5880 5880 5878 5879 5880 5880 5883 5885 5885 5884 5885 5886 5887 5886 5886 5887 5888 5887 5887 5887 5888 5888 5889 5890 5891 5892 5893 5893 5894 5895 5896 5896 5896 5896 5897 5897 5897 5897 5897 5897 5897 5897 5897 5897
5863 5866 5868 5871 5874 5877 5878 5875 5876 5878 5879 5882 5883 5882 5881 5882 5884 5885 5884 5884 5885 5886 5885 5885 5885 5886 5886 5887 5888 5889 5890 5891 5892 5893 5894 5894 5895 5895 5895 5896 5896 5896 5896 5896 5896 5896 5896 5896 5896
5858 5860 5863 5867 5870 5873 5877 5874 5873 5876 5877 5879 5880 5879 5878 5877 5880 5882 5882 5882 5883 5884 5883 5883 5883 5884 5884 5885 5886 5887 5888 5890 5891 5892 5893 5893 5894 5894 5895 5895 5895 5895 5895 5895 5895 5895 5895 5895 5895
5850 5854 5857 5861 5865 5869 5874 5871 5870 5871 5872 5875 5877 5876 5872 5872 5876 5879 5880 5880 5880 5881 5881 5881 5881 5882 5882 5883 5884 5886 5887 5888 5890 5891 5891 5892 5893 5893 5894 5894 5894 5894 5894 5894 5894 5894 5894 5894 5893
5842 5846 5850 5857 5861 5866 5868 5866 5865 5867 5869 5871 5873 5871 5869 5872 5875 5877 5878 5878 5878 5879 5879 5879 5879 5880 5880 5882 5883 5884 5885 5887 5888 5889 5890 5891 5892 5892 5892 5892 5893 5893 5893 5893 5893 5893 5893 5892 5892
5835 5839 5846 5852 5855 5860 5862 5861 5860 5861 5864 5867 5869 5868 5867 5869 5872 5874 5875 5875 5876 5876 5877 5877 5877 5878 5879 5880 5881 5882 5884 5885 5887 5888 5889 5890 5891 5891 5891 5891 5891 5891 5891 5891 5891 5891 5891 5890 5890
5828 5832 5839 5843 5847 5851 5854 5855 5856 5856 5859 5863 5866 5865 5866 5868 5870 5871 5872 5873 5873 5874 5874 5875 5875 5876 5877 5878 5879 5881 5882 5883 5885 5886 5887 5888 5889 5889 5889 5889 5889 5889 5889 5889 5889 5889 5889 5888 5888
5822 5826 5830 5834 5838 5842 5845 5849 5849 5851 5857 5859 5862 5861 5863 5865 5866 5867 5869 5870 5871 5871 5871 5872 5873 5874 5875 5876 5877 5879 5880 5882 5883 5884 5885 5886 5886 5887 5887 5888 5888 5887 5887 5887 5887 5887 5886 5886 5885
5817 5819 5822 5826 5830 5833 5837 5842 5846 5849 5853 5855 5857 5858 5860 5862 5863 5865 5866 5867 5868 5869 5869 5869 5871 5872 5873 5874 5875 5877 5879 5880 5881 5882 5883 5884 5885 5885 5885 5885 5885 5885 5885 5885 5885 5885 5884 5883 5882
5811 5813 5815 5819 5822 5827 5832 5837 5841 5846 5849 5851 5853 5854 5857 5859 5860 5862 5862 5864 5865 5866 5866 5867 5869 5870 5871 5872 5873 5875 5877 5878 5879 5880 5880 5881 5882 5882 5882 5882 5883 5882 5882 5882 5881 5881 5881 5880 5878
5803 5806 5809 5812 5816 5821 5826 5831 5837 5842 5844 5847 5849 5850 5853 5856 5856 5855 5854 5857 5860 5862 5864 5865 5866 5867 5868 5870 5871 5873 5874 5873 5875 5877 5877 5878 5879 5879 5879 5879 5879 5879 5879 5878 5877 5876 5876 5875 5875
5798 5801 5804 5809 5812 5816 5821 5826 5832 5835 5838 5841 5844 5846 5848 5850 5851 5851 5851 5854 5856 5858 5860 5862 5863 5865 5866 5867 5868 5870 5871 5871 5872 5874 5875 5875 5875 5875 5875 5875 5876 5875 5875 5874 5873 5872 5871 5870 5870
5795 5798 5801 5806 5809 5811 5815 5821 5826 5829 5832 5835 5837 5840 5843 5845 5846 5847 5848 5849 5849 5854 5856 5858 5859 5861 5862 5863 5865 5866 5868 5869 5869 5870 5871 5871 5871 5871 5871 5871 5871 5871 5870 5869 5868 5866 5865 5865 5864
5795 5798 5801 5805 5807 5809 5811 5815 5820 5823 5827 5830 5832 5834 5838 5840 5840 5841 5842 5843 5846 5850 5852 5853 5855 5857 5858 5860 5861 5863 5864 5865 5865 5866 5866 5866 5867 5867 5866 5866 5866 5866 5865 5863 5862 5860 5859 5858 5857
5791 5795 5800 5804 5805 5806 5808 5812 5816 5819 5823 5826 5827 5829 5830 5833 5834 5834 5835 5837 5841 5845 5847 5848 5850 5852 5854 5855 5857 5858 5859 5860 5860 5861 5861 5862 5862 5861 5861 5860 5860 5859 5859 5857 5856 5854 5852 5851 5850
5787 5790 5795 5799 5800 5802 5806 5810 5813 5816 5819 5821 5823 5824 5825 5827 5828 5828 5829 5833 5837 5840 5842 5844 5846 5848 5849 5851 5852 5853 5854 5855 5855 5856 5856 5856 5855 5855 5855 5854 5854 5853 5852 5850 5848 5846 5845 5843 5842
5783 5786 5791 5794 5797 5799 5803 5806 5809 5810 5813 5815 5816 5819 5820 5819 5818 5816 5819 5824 5830 5834 5837 5840 5842 5843 5845 5846 5847 5848 5849 5849 5850 5850 5850 5849 5849 5847 5847 5847 5847 5846 5844 5842 5840 5839 5837 5835 5834
5779 5784 5787 5790 5794 5797 5800 5802 5804 5805 5807 5810 5810 5812 5813 5815 5813 5813 5816 5819 5825 5828 5832 5835 5837 5839 5840 5841 5841 5842 5842 5843 5843 5844 5843 5842 5841 5840 5840 5839 5838 5837 5836 5835 5833 5832 5830 5829 5827
5777 5782 5784 5787 5790 5794 5797 5800 5800 5800 5801 5803 5805 5806 5808 5811 5811 5810 5811 5815 5820 5824 5827 5830 5832 5834 5835 5835 5835 5835 5836 5836 5836 5836 5836 5835 5834 5833 5833 5832 5830 5829 5829 5828 5826 5824 5823 5821 5819
5774 5778 5781 5784 5787 5790 5792 5796 5794 5792 5793 5797 5800 5802 5805 5808 5809 5810 5812 5814 5817 5820 5822 5825 5827 5828 5829 5830 5829 5828 5829 5829 5828 5829 5828 5828 5827 5826 5826 5824 5823 5822 5821 5820 5819 5817 5815 5813 5811
5771 5775 5780 5783 5785 5787 5790 5792 5786 5785 5788 5792 5795 5799 5802 5804 5806 5808 5809 5811 5813 5816 5818 5819 5821 5822 5823 5824 5824 5824 5823 5823 5822 5821 5820 5820 5820 5819 5818 5817 5816 5815 5813 5812 5810 5808 5806 5804 5802
5768 5773 5778 5782 5785 5786 5788 5786 5782 5783 5785 5789 5793 5796 5798 5800 5802 5804 5806 5808 5810 5812 5813 5814 5815 5817 5817 5817 5818 5818 5817 5816 5816 5815 5814 5813 5812 5811 5810 5809 5808 5806 5805 5803 5801 5799 5797 5794 5792
5767 5769 5774 5776 5777 5780 5781 5778 5778 5780 5783 5787 5790 5793 5794 5796 5797 5799 5801 5803 5804 5806 5807 5808 5810 5811 5811 5812 5812 5812 5811 5810 5809 5808 5807 5806 5805 5804 5802 5800 5798 5797 5795 5793 5791 5789 5786 5784 5781
5765 5769 5771 5773 5773 5774 5774 5774 5774 5775 5779 5782 5784 5787 5789 5791 5792 5793 5795 5796 5798 5799 5800 5801 5803 5804 5804 5805 5805 5805 5804 5803 5802 5801 5799 5798 5797 5795 5793 5791 5789 5787 5785 5783 5781 5778 5775 5772 5770
5763 5766 5768 5771 5771 5770 5769 5770 5766 5768 5771 5775 5778 5781 5783 5785 5787 5788 5789 5791 5792 5793 5794 5795 5796 5797 5797 5798 5798 5797 5797 5796 5795 5793 5791 5789 5788 5786 5783 5781 5779 5777 5775 5772 5770 5767 5764 5761 5758
5761 5764 5766 5768 5768 5767 5765 5766 5758 5758 5764 5769 5773 5776 5778 5780 5781 5782 5784 5785 5786 5787 5788 5788 5789 5790 5790 5790 5790 5789 5788 5787 5786 5784 5782 5780 5778 5775 5773 5770 5769 5766 5764 5761 5758 5756 5752 5750 5746
Wind_Speed
14 16 17 17 16 14 9 14 13 10 6 9 13 14 15 18 16 15 12 11 11 13 13 13 13 13 14 14 13 13 12 12 12 12 11 11 11 11 11 10 9 9 8 7 7 6 6 6 6
15 17 19 20 18 16 14 19 17 12 10 13 16 16 19 20 17 16 15 15 14 15 15 15 15 15 15 15 15 14 13 13 12 12 12 12 11 10 10 9 9 8 7 6 6 5 5 5 5
17 19 22 23 21 19 19 23 20 10 9 11 16 18 21 20 16 16 17 17 16 16 16 16 16 16 16 16 16 15 14 13 13 12 12 11 10 10 9 9 8 7 6 5 5 5 4 5 5
22 22 23 24 22 18 21 25 17 9 8 10 14 18 20 19 17 16 16 17 15 15 16 16 16 17 17 17 16 15 14 13 12 12 11 10 10 9 8 8 7 6 5 5 5 4 4 4 5
27 25 25 23 21 19 22 24 18 13 8 8 14 19 20 18 17 15 16 16 15 14 16 15 16 17 17 16 15 14 14 13 12 11 11 10 9 9 8 7 6 5 5 4 4 4 4 4 5
31 29 27 23 21 20 23 26 19 14 7 7 13 20 24 21 17 16 16 16 15 13 15 15 15 16 16 16 15 14 13 12 11 11 11 10 9 8 8 7 6 5 5 4 4 5 5 5 6
34 32 30 25 22 21 22 27 25 19 14 14 17 22 25 21 16 16 16 15 14 12 14 13 14 15 15 16 15 14 13 12 12 11 11 10 9 8 8 7 6 6 5 5 5 5 5 6 6
35 36 34 30 26 23 22 28 28 23 19 20 21 25 26 19 15 15 16 15 13 11 12 12 13 14 15 15 15 14 13 12 12 11 11 10 9 8 8 7 7 7 7 6 6 6 6 7 7
36 39 37 32 28 23 24 30 29 26 23 20 23 28 29 21 15 15 16 15 13 11 12 12 13 14 15 15 15 14 13 13 12 12 11 10 10 9 8 8 8 8 7 7 7 8 8 8 9
36 39 37 34 30 26 25 30 30 27 24 20 21 27 28 23 18 17 16 15 13 12 12 12 13 14 14 15 15 14 14 13 13 12 11 11 10 9 9 9 8 8 8 8 8 9 9 10 10
34 36 36 36 34 31 29 28 29 23 23 21 21 25 26 23 20 19 17 16 13 13 13 13 13 14 14 14 14 14 14 14 13 12 12 11 11 10 10 10 10 10 10 10 10 11 11 11 11
31 34 36 39 38 37 36 34 29 23 22 19 20 25 26 22 20 18 17 16 15 14 14 13 13 13 14 14 15 15 14 14 13 13 13 12 12 11 12 12 12 12 12 12 13 14 14 15 15
28 31 35 39 42 44 42 39 34 29 26 26 26 26 27 23 20 20 19 18 16 15 14 13 13 13 13 14 15 15 15 14 13 13 13 13 13 13 13 13 14 14 15 15 17 17 18 19 19
26 29 33 36 40 43 43 40 37 33 31 29 28 29 28 26 23 23 23 20 18 16 14 13 13 13 14 15 15 16 15 15 14 14 15 15 15 15 15 16 16 17 17 18 19 20 21 22 22
28 30 31 33 36 38 40 39 36 34 33 31 29 30 28 27 27 27 25 21 19 17 15 14 15 15 15 16 16 16 16 16 15 16 17 17 17 17 18 18 18 19 20 21 23 24 24 25 25
25 26 27 26 28 31 35 36 32 31 32 31 29 29 28 28 29 29 27 24 21 19 16 16 17 16 17 17 17 17 17 17 17 18 18 19 19 19 20 21 21 22 23 24 25 26 27 28 29
18 18 18 16 19 24 29 29 25 28 30 30 29 28 27 28 30 30 29 27 23 20 18 18 18 17 18 18 18 18 18 19 19 20 21 22 22 22 23 24 25 26 27 28 29 30 31 31 31
9 11 11 12 17 21 24 26 25 25 26 28 27 27 27 29 30 32 30 27 24 20 19 19 19 19 19 18 19 20 20 21 22 22 23 24 24 25 27 28 28 29 29 31 31 32 32 32 34
13 13 14 15 18 20 20 22 23 23 24 25 25 26 29 31 31 31 30 26 24 22 21 20 19 19 19 19 20 22 23 23 25 25 26 27 28 29 29 31 30 30 32 32 31 32 34 34 36
18 16 15 16 18 19 19 20 23 24 25 25 26 29 31 34 33 36 33 29 27 25 23 22 20 20 20 21 22 23 25 26 27 28 29 29 30 31 32 32 33 33 34 34 34 33 34 35 36
21 20 16 15 16 18 20 22 25 27 28 30 31 32 33 34 32 30 29 27 28 26 25 24 22 22 23 23 25 26 27 28 30 31 32 32 33 33 34 35 35 36 36 34 34 34 34 33 34
18 18 17 16 16 15 17 21 25 28 30 31 32 32 33 32 30 29 28 27 27 26 25 26 25 24 25 26 27 29 30 31 32 34 34 35 35 36 36 36 37 36 36 35 33 34 34 33 32
15 14 17 18 17 17 17 20 25 28 30 32 32 32 31 30 31 28 26 26 27 27 27 26 27 27 27 29 31 32 32 33 34 36 36 37 37 37 37 36 35 34 33 32 31 32 33 33 33
16 15 16 18 18 21 20 21 27 30 30 29 30 30 30 29 29 28 27 27 27 27 27 28 29 30 30 32 33 33 34 36 37 37 38 38 37 37 36 34 34 34 34 33 34 34 34 35 36
19 17 15 15 19 21 19 23 32 31 31 28 26 28 28 29 29 28 28 28 28 29 29 30 31 32 34 35 36 37 38 38 38 38 37 37 37 37 35 35 35 36 37 37 37 38 37 38 39
17 19 18 14 15 17 19 29 34 32 27 23 22 25 27 28 29 29 30 30 30 31 32 33 33 34 36 37 39 39 40 39 38 38 39 39 39 38 38 38 38 39 38 39 39 39 40 40 41
16 19 18 18 19 19 25 32 33 31 28 25 23 24 26 26 27 27 29 30 31 33 34 35 36 37 37 38 39 40 40 40 40 39 39 39 40 41 41 42 42 41 41 41 41 42 43 44 45
17 15 18 19 17 18 24 30 32 26 26 26 25 24 25 25 26 26 27 27 28 30 31 33 34 34 35 37 38 39 40 41 41 41 41 42 43 43 44 44 43 43 43 43 44 45 45 46 47
18 19 19 18 18 17 19 23 28 28 25 24 25 25 26 25 25 26 25 26 27 27 28 29 31 33 35 36 38 39 40 40 42 43 43 44 45 45 45 45 45 45 45 46 46 47 46 47 48
17 18 18 19 18 16 18 21 19 21 22 22 22 23 24 25 25 25 26 26 27 28 29 31 32 34 36 38 39 40 41 43 43 45 46 46 47 47 47 46 46 47 47 47 47 47 47 49 50
Wind_Direction
235 229 226 225 219 208 217 257 260 258 253 260 260 262 261 258 257 256 263 274 279 273 267 258 251 249 248 246 245 245 245 247 251 254 257 260 261 261 263 265 267 268 271 275 278 279 281 283 284
235 230 227 225 218 206 229 242 239 232 243 263 264 259 259 263 268 271 283 286 282 278 270 262 255 251 250 248 245 244 244 245 248 252 255 258 260 261 262 266 268 270 274 279 283 286 289 289 290
234 230 227 226 219 211 239 243 234 219 242 251 259 257 257 262 269 279 281 283 281 278 271 263 256 253 250 246 244 242 242 244 246 250 253 256 258 260 262 266 268 270 273 279 285 290 291 292 293
234 230 228 228 223 217 244 258 245 214 219 237 252 258 258 262 270 275 279 282 281 278 270 262 256 253 250 245 241 240 241 242 245 249 252 254 256 258 260 262 264 268 274 281 286 289 293 294 295
233 232 230 228 224 220 243 258 257 237 212 244 257 260 262 261 263 271 277 281 282 278 271 263 257 253 248 241 238 238 239 241 244 247 249 252 253 255 256 258 261 266 273 279 284 290 296 299 302
234 232 232 230 224 223 245 259 260 251 246 241 256 260 262 259 258 267 274 279 282 281 272 265 257 250 244 239 237 237 238 240 243 245 246 248 248 249 251 254 259 263 269 275 285 296 303 305 308
234 233 231 229 225 224 239 254 259 241 237 244 256 263 263 253 255 266 273 279 284 281 272 264 255 248 242 238 235 235 236 236 238 241 242 242 243 247 249 253 257 262 269 278 290 301 308 312 314
233 234 230 227 226 226 234 246 247 241 238 247 252 256 257 250 255 267 274 277 281 280 273 264 254 245 239 236 233 233 234 235 237 238 240 240 243 244 248 253 257 264 273 281 293 304 312 314 315
233 232 230 226 227 230 240 252 248 239 235 241 252 255 259 264 265 273 275 276 279 279 276 265 253 245 240 235 233 232 231 233 234 236 238 241 243 245 249 254 260 268 277 285 295 304 310 313 314
234 234 230 227 224 228 239 252 255 246 235 233 246 256 263 269 271 270 273 277 280 278 275 267 253 245 238 235 234 233 231 232 234 236 238 242 245 248 252 256 263 272 279 286 294 302 305 308 309
236 235 231 227 223 224 230 242 247 242 241 232 234 249 259 264 261 262 266 271 278 280 276 268 258 247 240 237 236 235 233 233 236 239 241 244 246 250 257 262 268 272 278 284 291 296 301 303 304
238 235 231 227 223 224 224 231 235 233 234 234 231 243 247 251 250 253 261 268 274 278 276 270 261 252 245 241 240 237 236 236 238 242 243 246 250 256 262 266 271 274 279 285 289 291 293 295 296
238 238 234 230 226 226 225 226 231 234 232 233 235 240 248 249 250 251 256 261 267 273 275 271 264 258 250 246 243 240 239 239 242 246 247 251 256 264 269 273 275 278 282 287 290 291 292 293 292
235 239 237 233 232 232 232 231 233 235 237 239 240 243 243 246 246 246 251 254 258 264 269 269 265 259 253 246 245 244 244 246 250 252 254 257 262 267 272 275 279 280 283 286 287 290 291 292 291
235 236 236 234 234 234 235 235 235 236 237 240 240 242 240 242 243 242 244 250 253 257 262 265 264 261 256 251 248 247 249 250 251 257 261 263 266 269 272 275 278 280 282 284 286 286 288 288 288
242 242 240 237 238 235 234 235 235 236 237 238 240 238 237 238 241 242 245 249 249 251 255 258 261 261 259 256 251 250 253 256 257 261 264 267 267 269 273 275 276 279 281 284 285 284 285 285 285
242 245 241 237 242 237 233 230 228 234 235 235 236 233 235 238 240 239 243 247 243 245 250 253 257 259 259 257 255 255 256 259 263 265 268 268 269 271 274 276 277 279 282 284 284 284 283 283 283
239 256 248 229 230 234 231 223 216 224 231 233 233 232 231 237 240 238 240 240 241 241 246 251 255 258 259 259 258 259 260 262 264 269 269 270 271 273 276 276 279 280 283 284 283 285 284 284 283
212 220 220 221 225 225 223 216 211 217 224 228 231 228 225 230 238 238 236 236 235 238 243 246 250 256 259 261 261 261 262 265 267 271 272 271 272 274 278 278 279 282 285 285 286 288 286 287 287
213 210 199 202 216 217 213 211 212 218 222 223 225 225 228 234 235 237 236 231 229 234 241 246 251 257 261 264 264 264 266 267 268 271 274 276 274 273 275 279 281 283 285 287 286 291 290 288 287
219 207 203 210 221 225 211 209 214 219 220 222 223 225 232 239 240 230 229 226 229 233 239 245 251 257 262 266 268 268 270 271 270 271 272 276 275 275 276 278 282 285 286 290 290 293 295 295 292
223 212 208 212 216 222 216 214 220 223 225 225 227 228 234 240 243 238 236 234 232 234 241 244 250 256 261 267 270 269 269 271 271 271 274 277 277 277 279 280 281 284 289 294 294 295 295 296 294
211 211 216 213 208 211 216 220 231 230 227 225 228 229 233 239 245 245 240 233 234 237 240 245 251 257 263 268 269 270 272 274 276 276 278 280 282 282 284 284 288 291 296 298 301 301 296 294 292
206 208 217 218 214 217 213 220 235 233 230 226 228 233 237 241 245 248 247 245 245 246 246 249 254 259 264 269 273 275 279 279 279 278 279 284 289 291 291 294 296 298 300 300 300 301 298 295 293
206 201 209 219 219 220 214 226 239 236 235 232 228 231 237 240 244 247 249 251 253 254 254 255 258 261 264 267 273 276 278 281 284 284 285 287 291 295 299 303 303 302 302 300 298 296 294 292 291
210 198 194 209 224 227 225 232 242 245 248 241 233 232 237 241 242 244 247 250 253 256 258 260 261 265 267 269 273 277 280 283 287 289 289 290 294 298 302 301 302 301 300 298 297 296 294 292 290
206 198 196 216 221 218 224 230 240 247 251 251 247 240 240 242 243 244 246 249 252 255 257 259 260 263 267 270 273 276 280 283 287 290 293 294 297 298 298 298 297 298 297 295 294 294 294 291 289
192 202 207 218 230 233 236 236 240 243 247 247 246 243 241 242 243 244 246 249 252 256 258 259 260 263 266 269 272 276 279 282 286 289 292 294 295 295 295 295 295 294 294 293 292 291 291 290 289
196 200 208 221 239 253 252 245 241 235 231 234 238 242 243 242 244 244 247 250 253 256 258 260 262 264 267 270 273 276 279 282 285 288 290 291 291 292 292 293 293 293 292 293 290 289 290 290 290
201 204 211 223 238 258 269 272 264 233 222 226 233 238 241 242 243 244 246 250 253 257 260 263 265 267 270 272 274 277 280 282 285 287 288 289 289 291 292 292 291 290 291 291 289 288 289 290 290